Regional Weather Roundup
Issued by NWS

Home | Current Version | Previous Version | Graphics & Text | Print | Product List | Glossary On
Versions: 1 2 3 4 5 6 7 8 9 10 11 12 13 14 15 16 17 18 19 20 21 22 23 24 25 26 27 28 29 30 31 32 33 34 35 36 37 38 39 40 41 42 43 44 45 46 47 48 49 50
997
ASUS43 KMKX 070220
RWRWI

WISCONSIN REGIONAL WEATHER ROUNDUP
NATIONAL WEATHER SERVICE MILWAUKEE/SULLIVAN WI
800 PM CST SAT FEB 06 2016

NOTE: "FAIR" INDICATES FEW OR NO CLOUDS BELOW 12,000 FEET WITH NO
SIGNIFICANT WEATHER AND/OR OBSTRUCTIONS TO VISIBILITY.

WIZ001-002-006>008-014>016-023>028-070300-
NORTHWEST WISCONSIN

CITY           SKY/WX    TMP DP  RH WIND       PRES   REMARKS
SUPERIOR ARPT  CLOUDY    34  26  72 SW15      29.74F WCI  25
ASHLAND        CLOUDY    34  24  67 S13G21    29.77F WCI  25
HAYWARD        CLOUDY    33  23  66 S13       29.78F WCI  24
SIREN          CLOUDY    33  26  75 SW13      29.79F WCI  24
CUMBERLAND     CLOUDY    30  25  80 S14       29.82S WCI  20
RICE LAKE      CLOUDY    31  25  78 S10       29.85S WCI  23
CHETEK         CLOUDY    31  25  77 S13       29.84F WCI  22
LADYSMITH      CLOUDY    32  25  75 S8        29.87F WCI  25
EAU CLAIRE     CLOUDY    31  23  72 S14G22    29.88F WCI  21
MENOMONIE      CLOUDY    32  25  76 S13       29.87F WCI  22
NEW RICHMOND   CLOUDY    32  26  77 SW12G17   29.84S WCI  23
OSCEOLA        CLOUDY    33  28  80 S10       29.86S WCI  25
$$

WIZ003>005-009-010-017-018-070300-
NORTH CENTRAL WISCONSIN

CITY           SKY/WX    TMP DP  RH WIND       PRES   REMARKS
MANITOWISH WTR CLOUDY    30  22  72 S8        29.81F WCI  22
ARBOR VITAE    CLOUDY    32  24  72 S13G18    29.84F WCI  22
WOODRUFF       CLOUDY    32  24  72 S13G18    29.84F WCI  22
RHINELANDER    CLOUDY    30  21  69 SW12G17   29.87F WCI  20
EAGLE RIVER    CLOUDY    30  20  68 SW9       29.84F WCI  21
LAND O LAKES   CLOUDY    30  22  71 S7        29.84F WCI  23
PHILLIPS       CLOUDY    30  22  72 S12G18    29.83F WCI  21
TOMAHAWK       CLOUDY    30  22  74 S6        29.88F WCI  24
MEDFORD        CLOUDY    29  24  79 S12       29.88F WCI  20
MERRILL        MOCLDY    31  23  73 S7        29.91F WCI  24
$$

WIZ029-030-035-036-043>047-070300-
CENTRAL WISCONSIN

CITY           SKY/WX    TMP DP  RH WIND       PRES   REMARKS
WAUSAU         CLOUDY    32  23  69 S10       29.90F WCI  24
MOSINEE        PTCLDY    28  25  86 S12       29.94F WCI  18
MARSHFIELD     CLOUDY    31  21  66 S12       29.91F WCI  22
STEVENS POINT  CLOUDY    28  22  81 S10       29.96F WCI  18
WAUPACA        CLOUDY    32  25  76 S8        29.99F WCI  25
WAUTOMA        CLOUDY    30  26  85 S9        30.00F WCI  22
WISC RAPIDS    CLOUDY    30  23  75 S10       29.97F WCI  21
CAMP DOUGLAS   CLOUDY    31  31 100 S9        29.97F WCI  22
$$

WIZ011>013-019>022-031-037>040-048>050-070300-
NORTHEAST WISCONSIN

CITY           SKY/WX    TMP DP  RH WIND       PRES   REMARKS
ANTIGO         CLOUDY    28  24  85 S12       29.91F WCI  17
SHAWANO        CLOUDY    32  26  78 S3        29.97F
OCONTO         CLOUDY    29  26  87 S5        29.99F WCI  24
STURGEON BAY   CLOUDY    28  21  74 S12       30.01F WCI  18
GREEN BAY      CLOUDY    30  24  78 S12       30.00F WCI  20
MANITOWOC      CLOUDY    29  25  85 S7        30.05F WCI  22
APPLETON       MOCLDY    28  23  80 S12       29.99F WCI  18
CLINTONVILLE   CLOUDY    32  25  74 S10       29.98F WCI  24
OSHKOSH        PTCLDY    29  23  78 S14       30.01F WCI  18
$$

WIZ032>034-041-042-053>061-070300-
SOUTHWEST WISCONSIN

CITY           SKY/WX    TMP DP  RH WIND       PRES   REMARKS
LA CROSSE      CLOUDY    30  25  81 S14       29.98F WCI  19
SPARTA         CLOUDY    30  26  83 S9        29.98F WCI  22
VIROQUA        CLOUDY    28  26  94 S10       29.98F WCI  19
BOSCOBEL       PTCLDY    29  26  89 SW5       30.04F WCI  24
PRAIRIE DU CHI CLOUDY    31  26  81 CALM      30.04F
PLATTEVILLE    CLEAR     28  26  94 S9        30.04F WCI  19
$$

WIZ056-057-062-063-064-067-068-070300-
SOUTH CENTRAL WISCONSIN

CITY           SKY/WX    TMP DP  RH WIND       PRES   REMARKS
REEDSBURG      CLOUDY    29  26  88 S8        30.02F WCI  21
BARABOO/DELLS  CLOUDY    29  24  84 SW9       30.01F WCI  20
LONE ROCK      CLOUDY    30  25  81 S5        30.05F WCI  25
MINERAL POINT  PTCLDY    30  28  93 S7        30.02F WCI  23
MADISON        MOCLDY    29  24  82 S10       30.05F WCI  20
MIDDLETON      PTCLDY    31  27  84 SW10      30.05F WCI  22
WATERTOWN      CLOUDY    28  28 100 S6        30.06F WCI  22
MONROE         CLEAR     28  28 100 S7        30.06F WCI  21
JANESVILLE     PTCLDY    32  30  93 W10       30.09F WCI  24
$$

WIZ051-052-058>065-066-070>072-070300-
SOUTHEAST WISCONSIN

CITY           SKY/WX    TMP DP  RH WIND       PRES   REMARKS
MILWAUKEE      PTCLDY    30  25  81 S6        30.09F WCI  24
WAUKESHA       CLEAR     27  25  93 SW3       30.08F
MILWAUKEE/TIMM PTCLDY    28  25  86 S5        30.08F WCI  23
RACINE         CLEAR     28  24  85 S5        30.11F WCI  23
BURLINGTON     CLEAR     26  24  92 SW3       30.09F
KENOSHA        CLEAR     28  24  85 SW6       30.10F WCI  22
FOND DU LAC    MOCLDY    29  24  82 SW10      30.03F WCI  20
SHEBOYGAN      CLOUDY    29  24  82 SW12      30.05F WCI  19
WEST BEND      MOCLDY    30  27  86 SW8       30.05F WCI  23
JUNEAU         CLOUDY    28  25  89 S10       30.05F WCI  18
$$

LSZ147-162-070300-
LAKE SUPERIOR

STATION/POSITION TIME  TEMP    WIND        PRES    WAVE
                       AIR SEA DIR/SP/G            HT/PER
                 (UTC) (F)     (DEG/KT/KT) (MB)    (FT/S)
DEVILS ISLAND    0200   32     200/  6/  8 1008.9F
PORT WING        0100          200/ 10/ 24   N/A
SAXON HARBOR     0140   34                 1008.8F
$$

LMZ867-665-643>646-070300-
LAKE MICHIGAN

STATION/POSITION TIME  TEMP    WIND        PRES    WAVE
                       AIR SEA DIR/SP/G            HT/PER
                 (UTC) (F)     (DEG/KT/KT) (MB)    (FT/S)
CHAMBERS ISLAND  0100   28     170/  6/ 12 1016.6F
ALGOMA LAKESHORE 0111          220/ 12/ 15   N/A
KEWAUNEE LAKESHO 0100   29     200/  7/  9 1016.7F
SHEBOYGAN LAKESH 0200   31     200/ 10/ 12 1018.7F
PORT WASHINGTON  0140   31     230/  3/  7 1019.3F
MILWAUKEE LAKESH 0210   32     200/  6/  7   N/A
KENOSHA   LAKESH 0200   35     220/  5/  6 1019.3F
$$

TC  - TEMPERATURE IN CELSIUS
VSB - VISIBILITY IN STATUTE MILES
WCI - WIND CHILL INDEX
HX  - HEAT INDEX





USA.gov is the U.S. government's official web portal to all federal, state and local government web resources and services.